This demonstration page uses our WeatherBlox Daily Observations layout. Learn more.

Left ArrowRight Arrow

30.00354, -91.81873

Hourly Observations for July 3, 2022

Temp ( °F °C ) Dew Point ( °F °C ) Humidity (%) Winds ( mph kmh ) Pressure ( in mb ) Visibility ( mi km ) Precip ( " mm )
12:53 am 00:53 Clear 78 25.6 76 24.4 93 93 Calm 30.00 1016 8 13 0.00 0.00
1:53 am 01:53 Clear 78 25.6 75 23.9 90 90 Calm 30.00 1016 10 16 0.00 0.00
2:53 am 02:53 Clear 77 25 75 23.9 94 94 Calm 30.00 1016 10 16 0.00 0.00
3:53 am 03:53 Clear 76 24.4 74 23.3 94 94 Calm 30.01 1016 10 16 0.00 0.00
4:53 am 04:53 Clear with Mist and Fog 76 24.4 75 23.9 97 97 Calm 30.01 1016 6 10 0.00 0.00
5:13 am 05:13 Clear with Mist and Fog 75 23.9 73 22.8 94 94 SSE 3 6 30.02 1017 2 2 0.00 0.00
5:22 am 05:22 Clear with Mist and Fog 74 23.3 73 22.8 97 97 Calm 30.02 1017 1 1 0.00 0.00
5:28 am 05:28 Clear with Mist and Fog 75 23.9 73 22.8 94 94 Calm 30.02 1017 4 6 0.00 0.00
5:53 am 05:53 Clear with Mist and Fog 75 23.9 74 23.3 96 96 Calm 30.03 1017 4 6 0.00 0.00
6:53 am 06:53 Sunny 77 25 75 23.9 94 94 Calm 30.05 1018 10 16 0.00 0.00
7:53 am 07:53 Sunny 82 27.8 77 25 85 85 Calm 30.05 1018 10 16 0.00 0.00
8:53 am 08:53 Sunny 85 29.4 77 25 77 77 SW 6 9 30.06 1018 10 16 0.00 0.00
9:32 am 09:32 Mostly Cloudy 87 30.6 77 25 72 72 W 6 9 30.07 1018 10 16 0.00 0.00
9:53 am 09:53 Mostly Cloudy 87 30.6 76 24.4 70 70 W 6 9 30.07 1018 10 16 0.00 0.00
10:00 am 10:00 Partly Cloudy 88 31.1 76 24.4 68 68 W 5 7 30.07 1018 10 16 0.00 0.00
10:53 am 10:53 Mostly Cloudy 87 30.6 76 24.4 70 70 WNW 5 7 30.07 1018 10 16 0.00 0.00
11:53 am 11:53 Mostly Cloudy 88 31.1 75 23.9 66 66 Calm 30.06 1018 10 16 0.00 0.00
12:53 pm 12:53 Sunny 90 32.2 75 23.9 62 62 SW 8 13 30.06 1018 10 16 0.00 0.00
1:53 pm 13:53 Sunny 91 32.8 76 24.4 61 61 SSW 7 11 30.04 1017 10 16 0.00 0.00
2:53 pm 14:53 Mostly Sunny 89 31.7 76 24.4 65 65 S 13 20 30.03 1017 10 16 0.00 0.00
3:35 pm 15:35 Cloudy with Heavy Rain 80 26.7 74 23.3 82 82 S 17 28 30.03 1017 2 3 0.10 2.54
3:46 pm 15:46 Cloudy with Light Rain 81 27.2 76 24.4 85 85 SW 10 17 30.04 1017 3 5 0.14 3.56
3:53 pm 15:53 Cloudy with Rain 82 27.8 76 24.4 82 82 SSW 6 9 30.03 1017 3 5 0.15 3.81
4:53 pm 16:53 Sunny 89 31.7 78 25.6 70 70 S 12 19 30.02 1017 10 16 0.01 0.25
5:53 pm 17:53 Mostly Cloudy 90 32.2 77 25 66 66 S 12 19 30.01 1016 10 16 0.00 0.00
6:53 pm 18:53 Sunny 88 31.1 74 23.3 63 63 SSW 9 15 30.01 1016 10 16 0.00 0.00
7:53 pm 19:53 Sunny 85 29.4 76 24.4 75 75 SSW 7 11 30.03 1017 10 16 0.00 0.00
8:53 pm 20:53 Clear 81 27.2 77 25 88 88 SSE 5 7 30.04 1017 10 16 0.00 0.00
9:53 pm 21:53 Clear 80 26.7 76 24.4 87 87 Calm 30.05 1018 10 16 0.00 0.00
10:53 pm 22:53 Clear 80 26.7 76 24.4 87 87 Calm 30.06 1018 10 16 0.00 0.00
11:53 pm 23:53 Clear 78 25.6 76 24.4 93 93 Calm 30.06 1018 10 16 0.00 0.00

Powered by AerisWeather